Hamilton, OH

4:38 AM EDT on July 28, 2017 (GMT -0400)
Butler County Regional

Weather History for KHAO - October, 2012

Change the Weather History Date:

Thursday, October 11, 2012

  Actual Average (KLUK) Record (KLUK)
Temperature  
Mean Temperature 45 °F -  
Max Temperature 62 °F 66 °F 88 °F (2010)
Min Temperature 28 °F 46 °F 25 °F (1964)
Degree Days  
Heating Degree Days 20    
Moisture  
Dew Point 31 °F    
Average Humidity 74    
Maximum Humidity 96    
Minimum Humidity 31    
Precipitation  
Precipitation 0.00 in - - ()
Sea Level Pressure  
Sea Level Pressure 30.28 in    
Wind  
Wind Speed 1 mph (SW)    
Max Wind Speed 9 mph    
Max Gust Speed 18 mph    
Visibility 10 miles    
Events      
Averages and records for this station are not official NWS values.
T = Trace of Precipitation, MM = Missing Value Source: NWS Daily Summary

Daily Weather History Graph

Daily Weather History Graph

Search for Another Location

Airport or City:

Trip Planner

Search our weather history database for the weather conditions in past years. The results will help you decide how hot, cold, wet, or windy it might be!

Date:

Astronomy

Oct. 11, 2012 Rise Set
Actual Time 7:44 AM EDT 7:04 PM EDT
Civil Twilight 7:17 AM EDT 7:31 PM EDT
Nautical Twilight 6:46 AM EDT 8:02 PM EDT
Astronomical Twilight 6:15 AM EDT 8:33 PM EDT
Moon 3:23 AM EDT (10/11) 4:39 PM EDT (10/11)
Length of Visible Light 12h 13m
Length of Day
11h 19m
Waning Crescent, 18% of the Moon is Illuminated
Oct 11
Waning Crescent
Oct 15
New
Oct 21
First Quarter
Oct 29
Full
Nov 6
Last Quarter

Hourly Weather History & Observations

Time (EDT) Temp. Dew Point Humidity Pressure Visibility Wind Dir Wind Speed Gust Speed Precip Events Conditions
12:53 AM 30.9 °F 30.0 °F 96% 30.27 in 10.0 mi Calm Calm - N/A   Clear
1:53 AM 30.9 °F 28.0 °F 89% 30.27 in 10.0 mi Calm Calm - N/A   Clear
2:53 AM 30.0 °F 28.0 °F 92% 30.28 in 10.0 mi Calm Calm - N/A   Clear
3:53 AM 28.9 °F 27.0 °F 92% 30.29 in 10.0 mi Calm Calm - N/A   Clear
4:53 AM 28.9 °F 26.1 °F 89% 30.30 in 10.0 mi Calm Calm - N/A   Clear
5:53 AM 28.0 °F 26.1 °F 92% 30.31 in 10.0 mi Calm Calm - N/A   Clear
6:53 AM 28.0 °F 26.1 °F 92% 30.32 in 10.0 mi Calm Calm - N/A   Clear
7:53 AM 28.0 °F 25.0 °F 88% 30.33 in 10.0 mi Calm Calm - N/A   Clear
8:53 AM 34.0 °F 32.0 °F 92% 30.34 in 10.0 mi Calm Calm - N/A   Clear
9:53 AM 41.0 °F 36.0 °F 82% 30.35 in 10.0 mi Calm Calm - N/A   Clear
10:53 AM 48.9 °F 37.0 °F 64% 30.33 in 10.0 mi Calm Calm - N/A   Clear
11:53 AM 54.0 °F 35.1 °F 49% 30.31 in 10.0 mi West 5.8 mph - N/A   Clear
12:53 PM 57.0 °F 30.9 °F 37% 30.29 in 10.0 mi Variable 4.6 mph - N/A   Clear
1:53 PM 59.0 °F 30.9 °F 35% 30.25 in 10.0 mi Variable 6.9 mph - N/A   Clear
2:53 PM 61.0 °F 30.9 °F 32% 30.23 in 10.0 mi SSW 8.1 mph 18.4 mph N/A   Clear
4:53 PM 62.1 °F 30.9 °F 31% 30.20 in 10.0 mi SW 9.2 mph - N/A   Clear
7:53 PM 46.0 °F 36.0 °F 68% 30.21 in 10.0 mi Calm Calm - N/A   Clear
9:53 PM 39.0 °F 35.1 °F 86% 30.23 in 10.0 mi Calm Calm - N/A   Clear
11:53 PM 37.0 °F 35.1 °F 93% 30.22 in 9.0 mi Calm Calm - N/A   Clear